Regional Weather Roundup
Issued by NWS

Home | Current Version | Previous Version | Graphics & Text | Print | Product List | Glossary On
Versions: 1 2 3 4 5 6 7 8 9 10 11 12 13 14 15 16 17 18 19 20 21 22 23 24 25 26 27 28 29 30 31 32 33 34 35 36 37 38 39 40 41 42 43 44 45 46 47 48 49 50
000
ASUS45 KBOI 312110
RWRID
WEATHER ROUNDUP FOR IDAHO
NATIONAL WEATHER SERVICE BOISE ID
200 PM MST SAT JAN 31 2015

NOTE: "FAIR" INDICATES FEW OR NO CLOUDS BELOW 12000 FEET
WITH NO SIGNIFICANT WEATHER AND/OR OBSTRUCTIONS TO VISIBILITY

IDZ012-014-312200-
SOUTHWEST IDAHO


CITY           SKY/WX    TMP DP  RH WIND       PRES   REMARKS
BOISE          SUNNY     45  31  58 W14       30.14F
CALDWELL       SUNNY     48  30  49 NW12      30.18F
MOUNTAIN HOME  SUNNY     43  34  72 W8        30.13F
$$

IDZ016-017-312200-
SOUTHCENTRAL IDAHO


CITY           SKY/WX    TMP DP  RH WIND       PRES   REMARKS
BURLEY         MOSUNNY   42  27  55 W15G24    30.10F
JEROME         MOSUNNY   37  29  72 W12       30.12F WCI  29
TWIN FALLS     SUNNY     44  29  55 W18G28    30.11F
$$

IDZ019>023-312200-
SOUTHEAST IDAHO


CITY           SKY/WX    TMP DP  RH WIND       PRES   REMARKS
IDAHO FALLS    CLOUDY    32  25  75 S10       30.09F WCI  24
POCATELLO      PTSUNNY   36  29  75 W14       30.12F WCI  27
REXBURG        CLOUDY    29  25  85 SW7       30.08F WCI  22
$$

IDZ006-010-011-018-031-032-312200-
CENTRAL IDAHO MOUNTAINS


CITY           SKY/WX    TMP DP  RH WIND       PRES   REMARKS
MCCALL         SUNNY     40  22  48 W8        30.10F WCI  34
HAILEY         MOSUNNY   27  23  86 SE10      30.09F WCI  17
STANLEY          N/A     20   8  60 CALM      30.12F
SALMON         CLOUDY    28  19  69 N3        30.19S
CHALLIS        SUNNY     28  18  66 CALM      30.14F
$$

IDZ002-004-006-007-026-312200-
NORTHERN IDAHO


CITY           SKY/WX    TMP DP  RH WIND       PRES   REMARKS
LEWISTON       CLOUDY    37  30  75 W6        30.32S WCI  32
LOWELL           N/A     40  28  62 S8        30.30F WCI  34
COEUR D`ALENE  CLOUDY    34  27  75 W6        30.26F WCI  29
MULLAN PASS    HAZE      26  20  77 NW5       30.09F VSB 1/4 WCI  20
$$


USA.gov is the U.S. government's official web portal to all federal, state and local government web resources and services.